sat.trackr.live / text

‹ back to catalog

STARLINK-35686

NORAD 66407 · 2025-257AD

PAYLOAD ACTIVE UNKNOWN

§ Identity

Operator
Country
US
Launch date
2025-11-09
Launch site
AFETR
Launch vehicle
Mass (kg)
RCS (m²)

Purposes: comms

External: N2YO · Heavens-Above · Gunter

§ Orbital elements

Epoch: 2026-05-25T05:08:15.955584Z

Period
93.85 min
Inclination
53.1587°
Eccentricity
0.0001211
Mean motion
15.34406297 rev/d
Perigee alt
461.9 km
Apogee alt
463.5 km
Semi-major
6,840.8 km
B*
6.2768e-4
RAAN
220.5804°
Arg perigee
74.4693°
Mean anomaly
285.6443°
Rev number
3,146

§ Raw data

STARLINK-356861 66407U 25257AD  26145.21407356  .00020894  00000+0  62768-3 0  99942 66407  53.1587 220.5804 0001211  74.4693 285.6443 15.34406297 31460

JSON: /api/v1/satellites/66407 · /tle

For live sub-satellite position, see the globe view (requires WebGL).

§ Visibility from observer

Set your observer location to see the next 7 days of passes ≥ 10°. The values pass through the URL so the page stays shareable.

No JS? Fill the form by hand. The geolocation button needs JavaScript.